EN

Hourly Weather Abay

Today, 14 June, Monday

Time Temperature Precipitation Wind Pressure Humidity
00:00 +5°C° 0 mm 1 mps 669 mmHg 93%
01:00 +5°C° 0 mm 1 mps 669 mmHg 93%
02:00 +4°C° 0 mm 1 mps 669 mmHg 93%
03:00 +4°C° 0 mm 1 mps 669 mmHg 93%
04:00 +4°C° 0 mm 0 mps 669 mmHg 91%
05:00 +5°C° 0 mm 0 mps 670 mmHg 89%
06:00 +6°C° 0 mm 0 mps 670 mmHg 88%
07:00 +8°C° 0 mm 0 mps 670 mmHg 79%
08:00 +11°C° 0 mm 1 mps 670 mmHg 70%
09:00 +12°C° 0 mm 1 mps 670 mmHg 60%
10:00 +14°C° 0 mm 1 mps 670 mmHg 58%
11:00 +15°C° 0 mm 2 mps 670 mmHg 55%
12:00 +16°C° 0 mm 2 mps 670 mmHg 52%
13:00 +16°C° 0 mm 2 mps 670 mmHg 53%
14:00 +16°C° 0 mm 2 mps 670 mmHg 53%
15:00 +17°C° 0 mm 3 mps 670 mmHg 54%
16:00 +16°C° 0.1 mm 3 mps 670 mmHg 59%
17:00 +14°C° 0.1 mm 3 mps 670 mmHg 63%
18:00 +14°C° 0.1 mm 3 mps 670 mmHg 67%
19:00 +12°C° 0 mm 3 mps 670 mmHg 76%
20:00 +10°C° 0 mm 2 mps 670 mmHg 85%
21:00 +8°C° 0 mm 2 mps 669 mmHg 93%
22:00 +8°C° 0 mm 1 mps 670 mmHg 94%
23:00 +8°C° 0 mm 1 mps 670 mmHg 95%

Tomorrow, 15 June, Tuesday

Time Temperature Precipitation Wind Pressure Humidity
00:00 +7°C° 0 mm 1 mps 670 mmHg 96%
01:00 +7°C° 0 mm 1 mps 669 mmHg 96%
02:00 +6°C° 0 mm 1 mps 669 mmHg 96%
03:00 +6°C° 0 mm 1 mps 669 mmHg 96%
04:00 +7°C° 0 mm 1 mps 669 mmHg 95%
05:00 +8°C° 0 mm 1 mps 670 mmHg 93%
06:00 +8°C° 0 mm 1 mps 670 mmHg 91%
07:00 +10°C° 0 mm 1 mps 670 mmHg 82%
08:00 +12°C° 0 mm 1 mps 670 mmHg 72%
09:00 +14°C° 0 mm 1 mps 670 mmHg 62%
10:00 +16°C° 0 mm 2 mps 670 mmHg 56%
11:00 +17°C° 0 mm 2 mps 670 mmHg 50%
12:00 +19°C° 0 mm 3 mps 670 mmHg 44%
13:00 +19°C° 0 mm 3 mps 670 mmHg 43%
14:00 +20°C° 0 mm 3 mps 670 mmHg 41%
15:00 +20°C° 0 mm 4 mps 670 mmHg 40%
16:00 +20°C° 0 mm 4 mps 670 mmHg 43%
17:00 +19°C° 0 mm 4 mps 670 mmHg 46%
18:00 +19°C° 0 mm 4 mps 670 mmHg 49%
19:00 +16°C° 0 mm 3 mps 669 mmHg 60%
20:00 +13°C° 0 mm 2 mps 669 mmHg 70%
21:00 +10°C° 0 mm 2 mps 669 mmHg 81%
22:00 +9°C° 0 mm 2 mps 669 mmHg 84%
23:00 +9°C° 0 mm 1 mps 669 mmHg 87%

Day after tomorrow, 16 June, Wednesday

Time Temperature Precipitation Wind Pressure Humidity
00:00 +8°C° 0 mm 1 mps 669 mmHg 90%
01:00 +8°C° 0 mm 1 mps 669 mmHg 90%
02:00 +7°C° 0 mm 1 mps 669 mmHg 91%
03:00 +6°C° 0 mm 0 mps 669 mmHg 91%
04:00 +7°C° 0 mm 0 mps 669 mmHg 88%
05:00 +8°C° 0 mm 0 mps 669 mmHg 85%
06:00 +9°C° 0 mm 0 mps 670 mmHg 81%
07:00 +12°C° 0 mm 0 mps 670 mmHg 73%
08:00 +14°C° 0 mm 0 mps 670 mmHg 64%
09:00 +17°C° 0 mm 0 mps 670 mmHg 55%
10:00 +19°C° 0 mm 0 mps 670 mmHg 49%
11:00 +20°C° 0 mm 0 mps 671 mmHg 44%
12:00 +22°C° 0 mm 0 mps 671 mmHg 38%
13:00 +24°C° 0 mm 1 mps 670 mmHg 37%
14:00 +25°C° 0 mm 1 mps 670 mmHg 35%
15:00 +25°C° 0 mm 1 mps 670 mmHg 34%
16:00 +25°C° 0 mm 1 mps 670 mmHg 38%
17:00 +24°C° 0 mm 1 mps 670 mmHg 41%
18:00 +24°C° 0 mm 1 mps 670 mmHg 45%
19:00 +21°C° 0 mm 1 mps 669 mmHg 54%
20:00 +18°C° 0 mm 1 mps 669 mmHg 63%
21:00 +14°C° 0 mm 1 mps 669 mmHg 72%
22:00 +13°C° 0 mm 1 mps 669 mmHg 75%
23:00 +13°C° 0 mm 1 mps 669 mmHg 78%

17 June, Thursday

Time Temperature Precipitation Wind Pressure Humidity
00:00 +12°C° 0 mm 1 mps 669 mmHg 81%
01:00 +10°C° 0 mm 0 mps 668 mmHg 83%
02:00 +10°C° 0 mm 0 mps 668 mmHg 84%
03:00 +9°C° 0 mm 0 mps 668 mmHg 86%
04:00 +11°C° 0 mm 0 mps 668 mmHg 82%
05:00 +12°C° 0 mm 0 mps 669 mmHg 79%
06:00 +13°C° 0 mm 0 mps 669 mmHg 76%
07:00 +15°C° 0 mm 0 mps 669 mmHg 68%
08:00 +17°C° 0 mm 0 mps 669 mmHg 60%
09:00 +20°C° 0 mm 0 mps 669 mmHg 53%
10:00 +23°C° 0 mm 1 mps 669 mmHg 48%
11:00 +24°C° 0 mm 1 mps 669 mmHg 43%
12:00 +25°C° 0 mm 1 mps 669 mmHg 38%
13:00 +25°C° 0 mm 2 mps 669 mmHg 38%
14:00 +25°C° 0 mm 2 mps 669 mmHg 38%
15:00 +26°C° 0 mm 2 mps 668 mmHg 38%
16:00 +25°C° 0 mm 2 mps 668 mmHg 43%
17:00 +24°C° 0 mm 2 mps 668 mmHg 48%
18:00 +23°C° 0 mm 1 mps 668 mmHg 53%
19:00 +21°C° 0 mm 1 mps 667 mmHg 62%
20:00 +18°C° 0 mm 1 mps 667 mmHg 70%
21:00 +15°C° 0 mm 1 mps 667 mmHg 78%
22:00 +14°C° 0 mm 1 mps 667 mmHg 81%
23:00 +13°C° 0 mm 0 mps 667 mmHg 83%

18 June, Friday

Time Temperature Precipitation Wind Pressure Humidity
00:00 +12°C° 0 mm 0 mps 667 mmHg 85%
01:00 +11°C° 0 mm 0 mps 666 mmHg 86%
02:00 +11°C° 0 mm 0 mps 666 mmHg 86%
03:00 +11°C° 0 mm 0 mps 666 mmHg 87%
04:00 +12°C° 0 mm 0 mps 666 mmHg 84%
05:00 +13°C° 0 mm 0 mps 666 mmHg 80%
06:00 +14°C° 0 mm 0 mps 667 mmHg 77%
07:00 +18°C° 0 mm 1 mps 667 mmHg 69%
08:00 +21°C° 0 mm 1 mps 667 mmHg 61%
09:00 +23°C° 0 mm 1 mps 667 mmHg 53%
10:00 +24°C° 0 mm 1 mps 667 mmHg 49%
11:00 +25°C° 0 mm 1 mps 667 mmHg 45%
12:00 +26°C° 0 mm 1 mps 666 mmHg 42%
13:00 +25°C° 0 mm 2 mps 666 mmHg 44%
14:00 +25°C° 0 mm 2 mps 666 mmHg 47%
15:00 +25°C° 0 mm 2 mps 666 mmHg 50%
16:00 +24°C° 0 mm 2 mps 666 mmHg 52%
17:00 +24°C° 0 mm 1 mps 665 mmHg 54%
18:00 +24°C° 0 mm 1 mps 665 mmHg 56%
19:00 +22°C° 0 mm 1 mps 665 mmHg 63%
20:00 +19°C° 0 mm 1 mps 665 mmHg 71%
21:00 +16°C° 0 mm 1 mps 664 mmHg 79%
22:00 +15°C° 0 mm 1 mps 664 mmHg 82%
23:00 +14°C° 0 mm 1 mps 664 mmHg 85%

19 June, Saturday

Time Temperature Precipitation Wind Pressure Humidity
00:00 +12°C° 0 mm 0 mps 664 mmHg 88%
01:00 +12°C° 0 mm 0 mps 664 mmHg 88%
02:00 +12°C° 0 mm 0 mps 664 mmHg 89%
03:00 +11°C° 0 mm 0 mps 664 mmHg 89%
04:00 +12°C° 0 mm 0 mps 664 mmHg 87%
05:00 +13°C° 0 mm 0 mps 664 mmHg 84%
06:00 +15°C° 0 mm 0 mps 664 mmHg 81%
07:00 +17°C° 0 mm 0 mps 664 mmHg 73%
08:00 +19°C° 0 mm 0 mps 664 mmHg 64%
09:00 +21°C° 0 mm 0 mps 665 mmHg 56%
10:00 +22°C° 0 mm 0 mps 665 mmHg 50%
11:00 +26°C° 0 mm 1 mps 665 mmHg 45%
12:00 +27°C° 0 mm 1 mps 664 mmHg 39%
13:00 +26°C° 0 mm 1 mps 664 mmHg 41%
14:00 +26°C° 0 mm 2 mps 664 mmHg 42%
15:00 +26°C° 0 mm 2 mps 664 mmHg 44%
16:00 +24°C° 0.5 mm 2 mps 664 mmHg 55%
17:00 +21°C° 0.5 mm 2 mps 663 mmHg 66%
18:00 +19°C° 0.5 mm 2 mps 663 mmHg 78%
19:00 +18°C° 0.8 mm 2 mps 663 mmHg 82%
20:00 +16°C° 0.8 mm 1 mps 663 mmHg 87%
21:00 +15°C° 0.8 mm 1 mps 663 mmHg 91%
22:00 +14°C° 0 mm 1 mps 663 mmHg 90%
23:00 +13°C° 0 mm 1 mps 663 mmHg 89%
Show more